Location: *
(49.2333°S, 177.3500°W)
Time: 16:50:22
(UTC+00:00)

Daily predictions for brighter satellites

Satellite Brightness Start Highest point End
(mag) Time Altitude Azimuth Time Altitude Azimuth Time Altitude Azimuth
ATLAS 2AS CENTAUR R/B 4.5 12:08:58 10° SW 12:19:04 - ESE 12:12:18 21° S
USA 234 4.4 13:17:41 10° E 13:21:43 37° ESE 13:21:43 37° ESE
Okean O Rocket 4.5 13:36:05 15° SSE 13:36:05 15° SSE 13:37:03 10° S
Cosmos 2227 Rocket 4.1 13:43:07 25° ESE 13:43:07 25° ESE 13:46:09 10° SE
ADEOS II 3.5 14:04:19 35° SSE 14:04:19 35° SSE 14:08:01 10° S
SL-16 R/B 4.4 13:59:40 10° SE 14:04:35 23° E 14:06:48 19° ENE
ATLAS 2AS CENTAUR R/B 3.2 14:06:47 48° ESE 14:06:47 48° ESE 14:12:10 10° ENE
SL-16 R/B 3.9 14:07:16 10° SSW 14:09:47 26° SSW 14:09:47 26° SSW
Cosmos 2219 4.3 14:19:56 38° S 14:19:56 38° S 14:23:40 10° SSE
USA 267 3.6 14:23:10 10° ESE 14:29:20 56° NE 14:29:20 56° NE
Gbstr 26 Del rocket 4.4 14:41:25 69° NNE 14:41:25 69° NNE 14:48:45 10° NE
ATLAS CENTAUR R/B 3.0 14:49:14 32° S 14:50:36 39° SE 14:55:14 10° ENE
Cosmos 540 Rocket 4.3 14:51:24 10° SSW 14:56:31 50° ESE 15:01:33 10° NE
SL-08 R/B 4.0 14:53:07 10° SSE 14:56:52 51° S 14:56:52 51° S
Cosmos 2297 Rocket 2.2 14:59:30 81° SE 14:59:30 81° SE 15:05:00 10° SSE
Cosmos 1709 Rocket 4.3 14:58:08 43° NNE 15:00:09 64° E 15:06:32 10° SSE
CZ-4B R/B 4.2 15:07:17 34° SSW 15:07:17 34° SSW 15:10:19 10° SSW
Cosmos 2082 3.7 15:05:21 76° SSW 15:05:21 76° SSW 15:10:51 10° SSE
USA 234 3.1 15:00:15 10° NE 15:06:51 82° NNW 15:09:05 46° WSW
Meteor 2-4 Rocket 3.8 15:01:13 10° SSW 15:07:18 86° E 15:08:37 58° NNE
Meteor 1-11 Rocket 3.7 15:07:09 73° NNE 15:07:36 78° E 15:13:18 10° SSE
Okean O Rocket 4.1 15:13:34 12° SSW 15:13:34 12° SSW 15:13:58 10° SSW
Okean 1-7 Rocket 4.3 15:14:10 10° S 15:17:33 48° S 15:17:33 48° S
BREEZE-M DEB (TANK) 3.5 15:19:33 74° N 15:19:47 77° NNE 15:30:42 10° ESE
Cosmos 1745 Rocket 4.3 15:21:54 49° WSW 15:21:54 49° WSW 15:28:05 10° S
Okean-O 2.7 15:23:12 69° ENE 15:23:37 76° ESE 15:28:10 10° SSW
Cosmos 2227 Rocket 2.4 15:24:57 52° WSW 15:25:02 52° SW 15:30:38 10° SSE
Cosmos 1603 3.8 15:21:08 10° SSW 15:26:51 75° ESE 15:32:29 10° NE
Lacrosse 5 rocket 2.4 15:27:25 37° S 15:27:25 37° S 15:31:03 10° SE
NOSS 2-3 (D) 4.3 15:27:06 10° SW 15:33:46 56° WNW 15:39:07 10° NNE
Cosmos 1943 4.1 15:31:52 10° SSW 15:37:28 49° SE 15:43:01 10° NE
NOAA 6 4.2 15:33:26 10° NNE 15:38:36 75° ESE 15:43:52 10° SSW
ADEOS II 3.5 15:45:16 23° SW 15:45:16 23° SW 15:47:40 10° SSW
Cosmos 1536 3.4 15:47:16 46° SW 15:47:16 46° SW 15:50:34 10° S
SL-16 R/B 2.5 15:42:29 10° SSE 15:48:49 73° WSW 15:51:53 33° NNW
Cosmos 2184 Rocket 4.4 15:44:37 10° N 15:50:57 66° E 15:57:23 10° SSE
Radarsat Rocket 4.3 15:44:36 10° NNE 15:51:16 86° WNW 15:58:59 10° SSW
Cosmos 2181 Rocket 4.1 15:47:46 10° SSW 15:53:46 52° W 15:56:56 27° NNW
NOSS 3-4 (A) 4.4 15:47:06 10° SW 15:54:21 56° SE 16:01:04 10° ENE
NOSS 3-4 (C) 4.4 15:47:12 10° SW 15:54:27 55° SE 16:01:10 10° ENE
Cosmos 2263 Rocket 4.4 15:51:11 10° NNE 15:55:30 23° ENE 15:59:51 10° SE
Meteor 1-31 Rocket 3.8 15:57:51 33° SW 15:57:51 33° SW 16:00:21 10° SSW
ATLAS 2AS CENTAUR R/B 2.7 15:54:30 32° WSW 15:56:45 43° WNW 16:02:52 10° N
CZ-4B R/B 4.4 15:57:57 41° SW 15:57:57 41° SW 16:00:53 10° SSW
CZ-4 R/B 4.3 15:56:13 10° ENE 15:59:08 19° ESE 16:02:06 10° SSE
IDEFIX/ARIANE 42P 4.3 15:55:07 10° NE 15:59:50 34° ESE 16:04:37 10° S
UNK 4.1 15:55:27 10° S 15:59:59 45° WSW 16:00:31 43° W
Cosmos 1025 Rocket 3.9 15:57:21 10° SSW 16:00:12 32° SW 16:00:12 32° SW
MOZ.5/SAFIR/RUBIN 5/SL-8 3.7 16:04:49 10° SSE 16:09:43 83° WSW 16:13:17 18° NNW
SL-08 ROCKET BODY 4.3 16:04:31 12° NNW 16:10:11 80° W 16:16:22 10° S
Cosmos 1500 3.8 16:06:51 10° N 16:10:43 59° E 16:14:37 10° SSE
Meteor 1-5 Rocket 4.3 16:08:23 24° NNW 16:11:51 63° WSW 16:17:47 10° S
USA 267 3.4 16:06:14 10° ESE 16:12:47 65° SSW 16:16:41 26° W
Cosmos 1892 Rocket 3.5 16:08:57 10° SSW 16:13:21 58° W 16:17:39 10° N
Cosmos 1354 Rocket 4.2 16:15:19 31° NW 16:17:41 54° WSW 16:22:54 10° SSE
Cosmos 1441 Rocket 3.4 16:15:11 10° SSW 16:18:55 47° W 16:21:40 17° NNW
Okean 1 Rocket 4.2 16:21:01 26° WSW 16:21:06 26° WSW 16:24:57 10° SSW
Landsat 4 3.7 16:17:41 10° SSE 16:21:38 80° WSW 16:24:24 18° NNW
Cosmos 1515 3.8 16:19:27 10° SSW 16:23:17 54° W 16:27:05 10° N
Cosmos 304 Rocket 4.1 16:19:18 10° SW 16:23:55 43° WNW 16:28:29 10° N
Cosmos 1544 Rocket 3.5 16:20:22 12° NNW 16:24:31 76° W 16:29:02 10° S
Cosmos 2154 Rocket 4.5 16:18:38 10° N 16:24:52 65° E 16:31:12 10° SSE
ATLAS CENTAUR R/B 2.1 16:25:39 13° SW 16:29:46 43° WNW 16:34:26 10° NNE
CSL-04 Debris 4.4 16:26:24 10° NNE 16:31:56 76° ESE 16:37:32 10° SSW
Cosmos 1975 2.7 16:27:54 10° NNW 16:31:58 83° W 16:36:04 10° S
Okean 2 4.4 16:29:01 10° SSW 16:32:26 26° W 16:32:26 26° W
Cosmos 1503 Rocket 4.4 16:30:04 24° WNW 16:32:43 43° WSW 16:37:44 10° SSE
Cosmos 1626 Rocket 3.6 16:30:24 10° S 16:34:52 88° ESE 16:39:19 10° N
Cosmos 2327 Rocket 4.4 16:30:04 10° NNW 16:36:08 65° WSW 16:42:19 10° S
Meteor 1-12 Rocket 4.4 16:30:28 10° N 16:36:26 89° W 16:42:34 10° SSE
Cosmos 540 Rocket 4.3 16:33:32 10° SW 16:37:51 27° W 16:42:08 10° NNW
Cosmos 1602 Rocket 3.5 16:37:34 10° SSW 16:42:01 83° W 16:46:24 10° N
Cosmos 2297 Rocket 3.6 16:41:21 17° WSW 16:44:03 23° SW 16:48:34 10° S
Meteor 2-13 Rocket 4.4 16:38:10 10° NNW 16:44:15 71° WSW 16:50:24 10° S
SMAP 4.0 16:40:29 10° NE 16:45:03 52° ESE 16:49:40 10° S
Ariane Rocket 3.0 16:40:54 10° N 16:45:59 69° WNW 16:51:10 10° SSW
EO 1 Del DPAF 3.7 16:45:39 10° SSE 16:49:36 68° ENE 16:53:28 10° N
SJ-12 4.3 16:46:21 10° NNE 16:50:29 71° ESE 16:54:41 10° S
USA 234 4.1 16:44:57 10° N 16:50:30 29° NW 16:56:05 10° WSW
Cosmos 1842 4.3 16:47:23 10° S 16:51:21 51° ESE 16:55:17 10° NNE
Cosmos 2227 4.4 16:48:35 12° NW 16:53:44 55° SW 16:59:21 10° SSE
Tiangong 1 2.6 16:53:22 16° NW 16:54:41 22° N 16:57:04 10° NE
CSL-04 Rocket 3.7 16:50:24 10° N 16:55:52 64° WNW 17:01:21 10° SSW
Meteor 1-21 4.4 16:51:01 10° SSW 16:56:59 88° ESE 17:02:52 10° N
Abrixas 2.3 16:55:43 21° W 16:57:31 78° N 17:00:26 10° E
Cosmos 1455 Rocket 3.5 16:53:55 10° NNW 16:58:14 43° WSW 17:02:36 10° S
Cosmos 2074 Rocket 4.4 16:53:33 10° NW 16:59:27 42° WSW 17:05:26 10° S
Okean-O 4.3 17:00:49 14° W 17:00:49 14° W 17:03:03 10° SW
USA 32 4.2 16:56:18 10° S 17:01:41 80° E 17:06:58 10° N
MSX 4.1 16:56:52 10° NNE 17:02:37 74° ESE 17:08:26 10° SSW
Cosmos 1680 Rocket 4.0 16:57:43 10° SSW 17:03:04 69° ESE 17:08:22 10° NNE
YAOGAN 1 3.3 16:59:08 10° NNE 17:03:26 59° ESE 17:07:49 10° S
Cosmos 2341 Rocket 4.1 16:59:42 10° N 17:06:00 88° WSW 17:12:24 10° S
Lacrosse 5 rocket 2.9 17:03:29 10° WSW 17:07:09 28° S 17:10:59 10° ESE
CZ-2C R/B 2.3 17:05:13 10° N 17:10:07 73° WNW 17:14:56 10° SSW
Cosmos 2227 Rocket 4.1 17:07:18 10° WSW 17:10:30 15° SSW 17:13:44 10° S
Cosmos 1666 2.8 17:09:01 10° N 17:12:56 83° E 17:16:54 10° S
SJ-7 4.4 17:14:06 10° NNE 17:18:09 83° WNW 17:22:16 10° SSW
Cosmos 1758 Rocket 4.3 17:15:20 10° S 17:19:49 62° ESE 17:24:17 10° NNE
Cosmos 1743 2.9 17:17:19 10° NNW 17:21:05 49° WSW 17:24:54 10° S
Cosmos 1943 3.9 17:16:17 10° SW 17:21:20 33° WNW 17:26:22 10° NNW
Cosmos 923 Rocket 4.0 17:17:58 10° SSW 17:23:13 68° WNW 17:28:25 10° N
Cosmos 1484 Rocket 3.2 17:23:14 10° NNE 17:27:17 73° ESE 17:31:25 10° S
MOS 1 4.3 17:24:32 10° NNE 17:30:14 81° WNW 17:36:03 10° SSW
Cosmos 292 Rocket 4.2 17:25:42 10° SW 17:30:15 41° WNW 17:34:45 10° N
AQUARIUS 4.2 17:26:26 10° N 17:30:56 61° WNW 17:35:30 10° SSW
SL-16 R/B 4.1 17:27:30 10° S 17:31:26 18° SW 17:35:23 10° W
